Location: Namasale
(1.5000°N, 32.6167°E)
Time: 21:31:33
(UTC+00:00)

Tiros 1 - Pass Details

Date: 24 April 2021
Orbit: 630 x 664 km, 48.4° (Epoch: 06 May)

Event Time Altitude Azimuth Distance (km) Brightness Sun altitude
Exits shadow 02:57:53 15° 240° (WSW) 1,744 8.8 -11.8°
Maximum altitude 03:01:34 46° 309° (NW) 874 7.6 -10.9°
Drops below altitude 10° 03:06:05 10° 22° (NNE) 2,038 10.2 -9.8°
Sets 03:08:28 0° 28° (NNE) 2,939 11.2 -9.2°
